Location: Cran-Gévrier
(45.9039°N, 6.1012°E)
Time: 10:49:21
(UTC+00:00)

Okean-O - Pass Details

Date: 09 February 2023
Orbit: 637 x 638 km, 98.1° (Epoch: 20 March)

Event Time Altitude Azimuth Distance (km) Brightness Sun altitude
Exits shadow 18:29:02 18° 35° (NE) 1,587 4.3 -17.2°
Drops below altitude 10° 18:30:47 10° 14° (NNE) 2,040 5.0 -17.5°
Sets 18:33:24 0° 360° (N) 2,955 6.0 -17.9°
